Back to catalog

CZ-6A DEB

AliveSSO
NORAD 56679·DEBRIS·🇨🇳 China

Launched Nov 11, 2022 from Taiyuan Satellite Launch Center

Loading…

Next Passes (next 24 hours)

TLE

FreshSource: Space-Track

Epoch: Sep 12, 2026, 17:12 UTC

1 56679U 22151AHF 26255.71688383  .00000833  00000-0  53339-3 0  9998
2 56679  98.9689 256.5391 0103644 183.6879 176.3535 14.03521274173421

Track CZ-6A DEB in real time with AllMySat

Download on the App Store